Back to catalog

PULSAR-0

AliveScienceSSO
NORAD 64541·PAYLOAD·🇺🇸 United States

Launched Jun 23, 2025 from Vandenberg Space Force Base

Loading…

Next Passes (next 24 hours)

TLE

FreshSource: Space-Track

Epoch: Sep 14, 2026, 06:16 UTC

1 64541U 25135P   26257.26122800  .00002518  00000-0  11775-3 0  9999
2 64541  97.4775  11.1298 0002016 204.7741 155.3397 15.20700583 68364

Track PULSAR-0 in real time with AllMySat

Download on the App Store